[[{"header":{"parameterUnit":"m.s-1","parameterCategory":2,"la1":30.2992,"la2":30.254,"lo1":-89.0895,"lo2":-89.0443,"dy":0.0025,"dx":0.0025,"nx":19,"ny":19,"refTime":"2026-05-07T03:00:00:Z","depth":"0","parameterNumber":2,"parameterNumberName":"U-component_of_CURRENTS"},"data":[0,0,0,-0.0397,-0.04,-0.0495,-0.0495,-0.0546,-0.0547,0,0,0,0,0,0,0,0,0,0,0,-0.0337,-0.0338,-0.0397,-0.04,-0.0495,-0.0495,-0.0546,-0.0547,0,0,0,0,0,0,0,0,0,0,0,-0.0337,-0.0338,-0.0338,-0.04,-0.0495,-0.0495,-0.0546,-0.0488,0,0,0,0,0,0,0,0,0,0,-0.0403,-0.0362,-0.0338,-0.0338,-0.0401,-0.0495,-0.0495,-0.0485,-0.0491,-0.0488,0,-0.0498,0,-0.0542,-0.055,-0.055,0,0,0,-0.0383,-0.0357,-0.0392,-0.0338,-0.0402,-0.0495,-0.0447,-0.0489,-0.0496,-0.0496,-0.0499,-0.0503,-0.0543,-0.055,-0.055,-0.0615,-0.0615,0,0,-0.0378,-0.0347,-0.0388,-0.0396,-0.042,-0.0444,-0.0451,-0.0494,-0.049,-0.05,-0.0505,-0.0544,-0.0551,-0.0551,-0.0614,-0.0615,0,0,0,-0.0374,-0.0343,-0.0378,-0.0393,-0.0426,-0.0448,-0.0455,-0.0488,-0.0502,-0.0506,-0.0544,-0.0551,-0.0551,-0.0614,-0.0615,-0.0557,0,0,0,-0.037,-0.0343,-0.0375,-0.0356,-0.0426,-0.047,-0.0447,-0.0498,-0.0506,-0.0544,-0.0551,-0.0552,-0.0614,-0.0614,-0.0558,-0.0507,0,0,0,-0.0334,-0.034,-0.035,-0.0355,-0.0408,-0.047,-0.0486,-0.05,-0.053,-0.055,-0.0552,-0.0613,-0.0614,-0.0558,-0.051,-0.0429,0,0,0,-0.03,-0.0316,-0.0349,-0.0387,-0.0407,-0.0478,-0.0487,-0.0537,-0.0557,-0.0551,-0.0614,-0.0615,-0.0559,-0.0511,-0.0431,-0.0266,-0.024,0,0,-0.0305,-0.0315,-0.0344,-0.0377,-0.0435,-0.0464,-0.0505,-0.0535,-0.0566,-0.0591,-0.0593,-0.0558,-0.051,-0.0429,-0.0312,-0.0284,0,0,0,-0.0337,-0.0343,-0.0372,-0.0414,-0.0474,-0.0492,-0.0538,-0.055,-0.0574,-0.0586,-0.059,-0.0562,-0.0512,-0.042,-0.0399,-0.0278,-0.0618,-0.0618,-0.0618,-0.0281,-0.0334,-0.036,-0.0415,-0.0455,-0.0512,-0.0515,-0.0538,-0.0574,-0.0583,-0.054,-0.0472,-0.0377,-0.0359,-0.0239,-0.0583,-0.0583,-0.0583,-0.0583,-0.0266,-0.0273,-0.0326,-0.0364,-0.0403,-0.0429,-0.0476,-0.0493,-0.0462,-0.0525,-0.0479,-0.0396,-0.0331,-0.0212,-0.0579,-0.058,-0.058,-0.0581,-0.0581,-0.0207,-0.021,-0.0243,-0.028,-0.0295,-0.0355,-0.0322,-0.0371,-0.0393,-0.0356,-0.0232,-0.0231,-0.0098,-0.0325,-0.0324,-0.0324,-0.0323,-0.0323,-0.0322,-0.012,-0.0153,-0.0137,-0.0182,-0.0182,-0.019,-0.022,-0.0192,-0.0139,-0.0136,-0.0135,-0.0053,-0.0393,-0.037,-0.0314,-0.0315,-0.0316,-0.0317,-0.0318,-0.0069,-0.0049,-0.0035,-0.0029,-0.002,0.0027,-0.0014,0.0095,0.013,0.0206,0.0276,-0.0013,0.0001,-0.0016,0.0015,0.0168,0.0168,0.0168,0.0168,0.0003,0.0002,0.0057,0.0089,0.013,0.0131,0.0284,0.036,0.0487,0.0584,0.054,0.0518,0.0493,0.0531,0.0502,0.054,0.0824,0.0825,0.0825,0.0037,0.0055,0.0099,0.0139,0.0193,0.0259,0.0402,0.0551,0.0783,0.0856,0.0679,0.0651,0.0612,0.0563,0.0607,0.0557,0.0611,0,0]},{"header":{"parameterUnit":"m.s-1","parameterCategory":2,"la1":30.2992,"la2":30.254,"lo1":-89.0895,"lo2":-89.0443,"dy":0.0025,"dx":0.0025,"nx":19,"ny":19,"refTime":"2026-05-07T03:00:00:Z","depth":"0","parameterNumber":3,"parameterNumberName":"V-component_of_CURRENTS"},"data":[0,0,0,-0.059,-0.0589,-0.058,-0.058,-0.0472,-0.0471,0,0,0,0,0,0,0,0,0,0,0,-0.0594,-0.0594,-0.059,-0.0589,-0.058,-0.058,-0.0472,-0.0471,0,0,0,0,0,0,0,0,0,0,0,-0.0594,-0.0594,-0.0594,-0.0589,-0.058,-0.058,-0.0473,-0.0504,0,0,0,0,0,0,0,0,0,0,-0.0525,-0.0557,-0.0594,-0.0594,-0.0589,-0.058,-0.058,-0.0506,-0.0502,-0.0448,0,-0.0449,0,-0.0453,-0.0461,-0.0461,0,0,0,-0.059,-0.0562,-0.0542,-0.0594,-0.0589,-0.058,-0.0585,-0.0504,-0.0499,-0.0442,-0.0448,-0.0445,-0.0452,-0.046,-0.046,-0.0475,-0.0476,0,0,-0.0591,-0.0604,-0.0547,-0.0539,-0.0587,-0.0585,-0.0584,-0.0502,-0.0504,-0.0448,-0.0442,-0.045,-0.0459,-0.0458,-0.0474,-0.0475,0,0,0,-0.0592,-0.0604,-0.059,-0.0543,-0.0547,-0.0585,-0.0584,-0.0508,-0.0499,-0.0441,-0.0448,-0.0459,-0.0457,-0.0472,-0.0474,-0.0599,0,0,0,-0.0592,-0.0604,-0.059,-0.06,-0.0549,-0.0544,-0.0591,-0.0505,-0.0496,-0.0449,-0.0459,-0.0455,-0.0471,-0.0473,-0.0592,-0.0564,0,0,0,-0.0594,-0.0605,-0.0601,-0.06,-0.0594,-0.0546,-0.0534,-0.0504,-0.0499,-0.0461,-0.0455,-0.047,-0.0473,-0.0587,-0.0557,-0.0543,0,0,0,-0.0612,-0.0621,-0.0602,-0.0623,-0.0594,-0.0635,-0.0535,-0.0551,-0.0533,-0.0458,-0.0471,-0.0474,-0.0585,-0.0553,-0.054,-0.0433,-0.0439,0,0,-0.0634,-0.0625,-0.0639,-0.0621,-0.0655,-0.0636,-0.0696,-0.0619,-0.0557,-0.0487,-0.0488,-0.0594,-0.0557,-0.0542,-0.0603,-0.0603,0,0,0,-0.0653,-0.066,-0.0671,-0.0684,-0.0702,-0.0724,-0.0699,-0.0693,-0.0669,-0.0558,-0.0619,-0.059,-0.0577,-0.0508,-0.051,-0.0363,-0.0488,-0.0487,-0.0487,-0.0699,-0.07,-0.073,-0.0741,-0.0767,-0.0795,-0.0818,-0.0801,-0.0755,-0.0787,-0.0715,-0.0808,-0.0744,-0.0742,-0.0596,-0.0783,-0.0784,-0.0784,-0.0784,-0.0733,-0.0748,-0.0758,-0.0783,-0.0808,-0.0855,-0.0887,-0.089,-0.089,-0.0859,-0.0843,-0.0671,-0.075,-0.0593,-0.0793,-0.0791,-0.079,-0.0789,-0.0789,-0.0763,-0.0768,-0.0781,-0.0804,-0.0833,-0.0864,-0.0865,-0.0904,-0.0927,-0.0946,-0.0797,-0.0793,-0.0623,-0.0932,-0.0932,-0.0932,-0.0932,-0.0932,-0.0932,-0.0781,-0.0791,-0.0801,-0.082,-0.0825,-0.0828,-0.0842,-0.0843,-0.084,-0.0856,-0.0855,-0.0638,-0.085,-0.0807,-0.093,-0.0931,-0.0931,-0.0931,-0.0931,-0.0787,-0.0801,-0.0806,-0.081,-0.0801,-0.0763,-0.077,-0.0722,-0.0732,-0.0713,-0.0574,-0.0805,-0.0718,-0.0715,-0.0668,-0.0747,-0.0747,-0.0747,-0.0747,-0.0792,-0.0799,-0.0796,-0.0781,-0.0762,-0.073,-0.0621,-0.0551,-0.0475,-0.0403,-0.042,-0.0389,-0.0403,-0.0295,-0.0302,-0.0246,-0.0215,-0.0215,-0.0214,-0.0777,-0.0789,-0.0772,-0.0769,-0.0739,-0.0679,-0.0526,-0.0291,-0.0164,-0.0182,-0.0241,-0.0264,-0.0211,-0.0244,-0.007,-0.0091,0.0003,0,0]}],[{"header":{"parameterUnit":"m.s-1","parameterCategory":2,"la1":30.2992,"la2":30.254,"lo1":-89.0895,"lo2":-89.0443,"dy":0.0025,"dx":0.0025,"nx":19,"ny":19,"refTime":"2026-05-07T03:00:00:Z","depth":"2","parameterNumber":2,"parameterNumberName":"U-component_of_CURRENTS"},"data":[0,0,0,-0.1901,-0.19,-0.1877,-0.1877,-0.1921,-0.1921,0,0,0,0,0,0,0,0,0,0,0,-0.1905,-0.1904,-0.1901,-0.19,-0.1876,-0.1877,-0.1921,-0.1921,0,0,0,0,0,0,0,0,0,0,0,-0.1906,-0.1905,-0.1903,-0.19,-0.1876,-0.1877,-0.1921,-0.1926,0,0,0,0,0,0,0,0,0,0,-0.1942,-0.1902,-0.1905,-0.1903,-0.1899,-0.1876,-0.1877,-0.1926,-0.1926,-0.1945,0,-0.1915,0,-0.1911,-0.1924,-0.1924,0,0,0,-0.1925,-0.1901,-0.1915,-0.1903,-0.1899,-0.1876,-0.1894,-0.1926,-0.1926,-0.1945,-0.1916,-0.1917,-0.1912,-0.1924,-0.1924,-0.2061,-0.2062,0,0,-0.1927,-0.1891,-0.1914,-0.1914,-0.186,-0.1895,-0.1893,-0.1925,-0.1901,-0.1916,-0.1918,-0.1912,-0.1924,-0.1925,-0.206,-0.2061,0,0,0,-0.1913,-0.1891,-0.1903,-0.1912,-0.1897,-0.1893,-0.1892,-0.19,-0.1908,-0.1918,-0.1913,-0.1924,-0.1925,-0.2059,-0.206,-0.2021,0,0,0,-0.1915,-0.1883,-0.1903,-0.1881,-0.1895,-0.1881,-0.1865,-0.1906,-0.1909,-0.1913,-0.1924,-0.1925,-0.2057,-0.206,-0.2019,-0.1921,0,0,0,-0.1912,-0.1882,-0.1874,-0.1879,-0.186,-0.188,-0.189,-0.1906,-0.1905,-0.1924,-0.1925,-0.2056,-0.2059,-0.2017,-0.1922,-0.1805,0,0,0,-0.1889,-0.1858,-0.1872,-0.1846,-0.186,-0.1957,-0.189,-0.1948,-0.1975,-0.1925,-0.2057,-0.206,-0.2017,-0.1922,-0.1807,-0.1617,-0.1591,0,0,-0.185,-0.1851,-0.1847,-0.1861,-0.1949,-0.1964,-0.2036,-0.2024,-0.2026,-0.2053,-0.2055,-0.2019,-0.1922,-0.1805,-0.1788,-0.1755,0,0,0,-0.1839,-0.1843,-0.1878,-0.1908,-0.1989,-0.203,-0.207,-0.2081,-0.2085,-0.2046,-0.2091,-0.2031,-0.1956,-0.1852,-0.1828,-0.2074,-0.2074,-0.2074,-0.2073,-0.1788,-0.1841,-0.1869,-0.195,-0.2006,-0.2102,-0.2117,-0.2137,-0.2161,-0.217,-0.2055,-0.2009,-0.1907,-0.1884,-0.2164,-0.2164,-0.2164,-0.2164,-0.2164,-0.1781,-0.1775,-0.1851,-0.1875,-0.195,-0.1992,-0.2084,-0.2093,-0.2052,-0.211,-0.2041,-0.1888,-0.1854,-0.2162,-0.2162,-0.2163,-0.2163,-0.2163,-0.2163,-0.1742,-0.1734,-0.174,-0.1766,-0.177,-0.1842,-0.1803,-0.1884,-0.1929,-0.1899,-0.1713,-0.1711,-0.1864,-0.1838,-0.1837,-0.1836,-0.1835,-0.1834,-0.1834,-0.1655,-0.1681,-0.1629,-0.1646,-0.16,-0.1567,-0.1606,-0.1594,-0.1563,-0.1597,-0.1596,-0.1895,-0.1906,-0.1845,-0.182,-0.1823,-0.1825,-0.1826,-0.1827,-0.1547,-0.1553,-0.1488,-0.1438,-0.1374,-0.1272,-0.1343,-0.1226,-0.1212,-0.1144,-0.1429,-0.1444,-0.1398,-0.1419,-0.1348,-0.1194,-0.1194,-0.1194,-0.1194,-0.1445,-0.1461,-0.134,-0.1259,-0.1192,-0.1143,-0.0921,-0.0831,-0.0878,-0.0908,-0.0921,-0.1004,-0.1034,-0.0975,-0.1006,-0.093,-0.0667,-0.0667,-0.0666,-0.1349,-0.134,-0.121,-0.1168,-0.1092,-0.0972,-0.0676,-0.0498,-0.0565,-0.0652,-0.09,-0.1145,-0.1308,-0.134,-0.1289,-0.1323,-0.1217,0,0]},{"header":{"parameterUnit":"m.s-1","parameterCategory":2,"la1":30.2992,"la2":30.254,"lo1":-89.0895,"lo2":-89.0443,"dy":0.0025,"dx":0.0025,"nx":19,"ny":19,"refTime":"2026-05-07T03:00:00:Z","depth":"2","parameterNumber":3,"parameterNumberName":"V-component_of_CURRENTS"},"data":[0,0,0,-0.0122,-0.0122,-0.0087,-0.0086,0.0135,0.0137,0,0,0,0,0,0,0,0,0,0,0,-0.0142,-0.0142,-0.0122,-0.0122,-0.0087,-0.0086,0.0134,0.0137,0,0,0,0,0,0,0,0,0,0,0,-0.0142,-0.0142,-0.0143,-0.0122,-0.0087,-0.0086,0.0134,0.0067,0,0,0,0,0,0,0,0,0,0,0.0013,-0.0055,-0.0142,-0.0143,-0.0122,-0.0087,-0.0086,0.0062,0.0072,0.0164,0,0.0147,0,0.0149,0.0154,0.0155,0,0,0,-0.0106,-0.0063,-0.0036,-0.0143,-0.0121,-0.0087,-0.0098,0.0066,0.0077,0.0177,0.015,0.0158,0.0153,0.0156,0.0157,0.0324,0.0324,0,0,-0.0108,-0.0139,-0.0045,-0.0031,-0.0136,-0.0099,-0.0097,0.0071,0.0067,0.0151,0.0162,0.0156,0.0158,0.016,0.0324,0.0324,0,0,0,-0.0124,-0.0141,-0.0122,-0.0039,-0.0046,-0.0099,-0.0096,0.0059,0.0068,0.0164,0.0159,0.0159,0.0162,0.0324,0.0324,0.0119,0,0,0,-0.0124,-0.0151,-0.0124,-0.0143,-0.0051,-0.0022,-0.0113,0.0056,0.0075,0.0158,0.0159,0.0165,0.0324,0.0324,0.0124,0.0045,0,0,0,-0.0139,-0.0153,-0.0154,-0.0144,-0.0134,-0.0025,-0.0007,0.0059,0.0073,0.0156,0.0166,0.0324,0.0324,0.013,0.0055,0.001,0,0,0,-0.0164,-0.0199,-0.0155,-0.0203,-0.0135,-0.0075,-0.0009,0.0037,0.0098,0.0161,0.0324,0.0324,0.0131,0.0061,0.0016,0.0145,0.013,0,0,-0.022,-0.0207,-0.0236,-0.0196,-0.0178,-0.0078,-0.0056,0.0037,0.0131,0.0286,0.0288,0.0122,0.0056,0.0012,0.0129,0.0114,0,0,0,-0.0262,-0.0275,-0.0259,-0.0255,-0.0184,-0.0134,-0.002,0.0012,0.0069,0.0162,0.0175,0.0141,0.0118,0.021,0.0199,0.0322,0.0323,0.0323,0.0323,-0.0341,-0.0327,-0.0349,-0.0304,-0.026,-0.0158,-0.0145,-0.0068,0.0046,0.0016,0.001,-0.011,-0.0013,-0.002,0.0052,0.0051,0.005,0.005,0.0049,-0.0412,-0.0437,-0.0413,-0.043,-0.0363,-0.0329,-0.0252,-0.023,-0.0213,-0.012,-0.0132,0.0037,-0.0045,0.0034,0.0037,0.0039,0.0041,0.0042,0.0043,-0.0453,-0.0465,-0.0487,-0.0506,-0.0518,-0.0448,-0.0455,-0.0421,-0.0387,-0.0427,-0.024,-0.0233,-0.0243,-0.0415,-0.0416,-0.0416,-0.0417,-0.0417,-0.0418,-0.0491,-0.0506,-0.0538,-0.0569,-0.0585,-0.0593,-0.0569,-0.055,-0.0485,-0.0424,-0.0421,-0.0264,-0.0249,-0.0264,-0.0427,-0.0425,-0.0424,-0.0423,-0.0422,-0.0538,-0.0538,-0.0573,-0.0594,-0.0617,-0.0568,-0.0564,-0.048,-0.0498,-0.0453,-0.0395,-0.0393,-0.0299,-0.0284,-0.0296,-0.0457,-0.0457,-0.0457,-0.0457,-0.0557,-0.0566,-0.0582,-0.0589,-0.0585,-0.0542,-0.0368,-0.02,-0.0201,-0.0146,-0.0159,-0.0024,-0.003,0.0088,0.0094,0.0096,0.0035,0.0036,0.0037,-0.0573,-0.0576,-0.0574,-0.0578,-0.0563,-0.0466,-0.0198,0.0221,0.0342,0.0061,-0.003,-0.0433,-0.0264,-0.0262,-0.0095,-0.008,-0.0083,0,0]}],[{"header":{"parameterUnit":"m.s-1","parameterCategory":2,"la1":30.2992,"la2":30.254,"lo1":-89.0895,"lo2":-89.0443,"dy":0.0025,"dx":0.0025,"nx":19,"ny":19,"refTime":"2026-05-07T03:00:00:Z","depth":"4","parameterNumber":2,"parameterNumberName":"U-component_of_CURRENTS"},"data":[0,0,0,-0.1189,-0.1191,-0.1301,-0.1301,-0.1383,-0.1384,0,0,0,0,0,0,0,0,0,0,0,-0.1154,-0.1155,-0.1188,-0.1191,-0.1301,-0.1301,-0.1383,-0.1384,0,0,0,0,0,0,0,0,0,0,0,-0.1154,-0.1155,-0.1156,-0.1192,-0.13,-0.1301,-0.1383,-0.1314,0,0,0,0,0,0,0,0,0,0,-0.1215,-0.1192,-0.1155,-0.1156,-0.1192,-0.13,-0.1301,-0.1311,-0.1318,-0.1318,0,-0.1344,0,-0.1365,-0.1388,-0.1388,0,0,0,-0.1189,-0.1186,-0.1216,-0.1156,-0.1193,-0.13,-0.1251,-0.1316,-0.1323,-0.1327,-0.1346,-0.1349,-0.1366,-0.1388,-0.1389,-0.1464,-0.1464,0,0,-0.1183,-0.1171,-0.1211,-0.1222,-0.1234,-0.1247,-0.1254,-0.1321,-0.1332,-0.1346,-0.1351,-0.1368,-0.1389,-0.1389,-0.1464,-0.1464,0,0,0,-0.1167,-0.1166,-0.1196,-0.1218,-0.1242,-0.125,-0.1258,-0.1329,-0.134,-0.1353,-0.1369,-0.1389,-0.139,-0.1463,-0.1464,-0.1456,0,0,0,-0.1163,-0.1158,-0.1194,-0.1187,-0.1241,-0.1295,-0.1265,-0.1336,-0.1344,-0.1368,-0.1389,-0.1391,-0.1463,-0.1464,-0.1455,-0.1439,0,0,0,-0.1147,-0.1156,-0.1172,-0.1186,-0.1235,-0.1295,-0.131,-0.1338,-0.1353,-0.1388,-0.1391,-0.1463,-0.1463,-0.1455,-0.1438,-0.1486,0,0,0,-0.1124,-0.1148,-0.1172,-0.1207,-0.1234,-0.1298,-0.131,-0.1366,-0.1399,-0.139,-0.1463,-0.1464,-0.1455,-0.1438,-0.1485,-0.1182,0,0,0,-0.1135,-0.1149,-0.1168,-0.1192,-0.1249,-0.1282,-0.1336,-0.1387,-0.1407,-0.1435,-0.1438,-0.1456,-0.1438,-0.1486,-0.1232,0,0,0,0,-0.1158,-0.1174,-0.1196,-0.1239,-0.1289,-0.1331,-0.1386,-0.1407,-0.1452,-0.1432,-0.1474,-0.1464,-0.1494,-0.1315,-0.1468,-0.1467,-0.1467,-0.1467,-0.1467,-0.1141,-0.1175,-0.1212,-0.1263,-0.1307,-0.1372,-0.1399,-0.1438,-0.1464,-0.1488,-0.1471,-0.1518,-0.1328,-0.1495,-0.1495,-0.1495,-0.1495,-0.1495,-0.1495,-0.114,-0.1151,-0.1214,-0.1262,-0.1318,-0.1365,-0.142,-0.1442,-0.1488,-0.149,-0.1521,-0.1335,-0.1495,-0.1495,-0.1495,-0.1495,-0.1495,-0.1495,-0.1495,-0.11,-0.1111,-0.1161,-0.1227,-0.1289,-0.1355,-0.1353,-0.1422,-0.1481,-0.1493,-0.1351,-0.1528,-0.1514,-0.1538,-0.1539,-0.1539,-0.1539,-0.1539,-0.1539,-0.1029,-0.1079,-0.1098,-0.1186,-0.1215,-0.1258,-0.1329,-0.1325,-0.142,-0.1307,-0.1514,-0.1533,-0.1532,-0.1518,-0.1541,-0.1541,-0.1541,-0.154,-0.154,-0.0958,-0.0987,-0.0994,-0.1021,-0.1078,-0.1094,-0.12,-0.1144,-0.1153,-0.1119,-0.1217,-0.1233,-0.1214,-0.1221,-0.1195,-0.1124,-0.112,-0.1116,0,-0.0896,-0.0914,-0.0888,-0.088,-0.0869,-0.0977,-0.0843,-0.0878,-0.098,-0.0943,-0.1223,-0.1341,-0.1347,-0.1334,-0.1333,-0.1306,0,0,0,-0.0844,-0.0839,-0.0781,-0.0785,-0.0764,-0.0738,-0.0799,-0.0739,-0.0967,-0.0839,-0.102,-0.1045,-0.1299,-0.1548,-0.1557,-0.1555,-0.1535,0,0]},{"header":{"parameterUnit":"m.s-1","parameterCategory":2,"la1":30.2992,"la2":30.254,"lo1":-89.0895,"lo2":-89.0443,"dy":0.0025,"dx":0.0025,"nx":19,"ny":19,"refTime":"2026-05-07T03:00:00:Z","depth":"4","parameterNumber":3,"parameterNumberName":"V-component_of_CURRENTS"},"data":[0,0,0,0.0168,0.0169,0.0192,0.0192,0.0244,0.0245,0,0,0,0,0,0,0,0,0,0,0,0.0162,0.0162,0.0168,0.0169,0.0192,0.0192,0.0244,0.0245,0,0,0,0,0,0,0,0,0,0,0,0.0162,0.0162,0.0162,0.0169,0.0192,0.0192,0.0244,0.0223,0,0,0,0,0,0,0,0,0,0,0.0198,0.0184,0.0162,0.0162,0.0169,0.0192,0.0192,0.0221,0.0224,0.0238,0,0.0239,0,0.024,0.0248,0.0248,0,0,0,0.0175,0.0182,0.0189,0.0162,0.0169,0.0192,0.0183,0.0223,0.0226,0.0242,0.0239,0.0241,0.0241,0.0249,0.0249,0.0343,0.0343,0,0,0.0174,0.0167,0.0187,0.0191,0.0171,0.0182,0.0184,0.0224,0.0226,0.0239,0.0242,0.0242,0.0249,0.0249,0.0342,0.0343,0,0,0,0.0166,0.0166,0.0172,0.0189,0.019,0.0183,0.0185,0.0224,0.0226,0.0243,0.0243,0.0249,0.025,0.0341,0.0342,0.0292,0,0,0,0.0165,0.0161,0.0171,0.0168,0.0189,0.0203,0.0183,0.0223,0.0228,0.0242,0.0249,0.025,0.0341,0.0342,0.0291,0.0237,0,0,0,0.0161,0.0161,0.0162,0.0168,0.0175,0.0202,0.0207,0.0224,0.0228,0.0249,0.0251,0.034,0.0342,0.0291,0.0238,0.0295,0,0,0,0.0156,0.0137,0.0162,0.0137,0.0174,0.0181,0.0207,0.0214,0.0228,0.025,0.0341,0.0342,0.0291,0.0239,0.0295,0.0232,0,0,0,0.0124,0.0133,0.0115,0.0138,0.0122,0.0178,0.0192,0.022,0.0264,0.0328,0.033,0.0291,0.0238,0.0295,0.0324,0,0,0,0,0.0099,0.0086,0.0086,0.0082,0.0106,0.0139,0.0188,0.0235,0.0298,0.0279,0.0337,0.0306,0.0343,0.0309,0.035,0.0349,0.0349,0.0349,0.0349,0.0056,0.0053,0.0022,0.0032,0.0049,0.0122,0.0164,0.0246,0.0289,0.033,0.0299,0.0348,0.0313,0.0358,0.0358,0.0358,0.0358,0.0358,0.0358,-0.0009,-0.0038,-0.003,-0.0061,-0.0009,0.0019,0.0136,0.0192,0.0297,0.0316,0.0357,0.0299,0.0354,0.0355,0.0355,0.0356,0.0356,0.0356,0.0356,-0.0047,-0.0063,-0.0083,-0.0122,-0.0118,-0.0051,-0.0016,0.0084,0.0231,0.026,0.0293,0.0337,0.0303,0.0309,0.0309,0.0309,0.0309,0.0309,0.0309,-0.0075,-0.0099,-0.0145,-0.0185,-0.021,-0.0208,-0.0105,-0.0013,0.0142,0.0222,0.0258,0.0333,0.0335,0.0304,0.031,0.031,0.031,0.0309,0.0309,-0.0131,-0.0131,-0.0198,-0.0238,-0.0301,-0.0303,-0.0235,-0.0041,0.0077,0.0209,0.0241,0.0244,0.0264,0.0268,0.0235,0.022,0.0219,0.0218,0,-0.0156,-0.0166,-0.0228,-0.0289,-0.0342,-0.0343,-0.0241,-0.0109,0.0097,0.0079,0.0134,0.0162,0.0167,0.0181,0.0184,0.014,0,0,0,-0.0192,-0.0195,-0.0233,-0.0281,-0.0346,-0.0269,-0.0207,-0.0131,0.0015,0.0148,0.0198,0.0203,0.0242,0.031,0.0349,0.0351,0.0305,0,0]}]]